| time (UTC) | temp F | wind direction | speed MPH | gust MPH | rain 1hr in | rain 24hr in | rain mn in | humidity % | barometer mb |
| 20260510152832 | 69 | 318 | 4.0 | 7.0 | 0.00 | 0.00 | 0.00 | 58 | 1018.6 |
| 20260510152329 | 69 | 245 | 4.0 | 8.0 | 0.00 | 0.00 | 0.00 | 57 | 1018.4 |
| 20260510151825 | 69 | 259 | 5.0 | 9.0 | 0.00 | 0.00 | 0.00 | 60 | 1018.6 |
| 20260510151323 | 68 | 39 | 1.0 | 9.0 | 0.00 | 0.00 | 0.00 | 59 | 1018.6 |
| 20260510150819 | 69 | 292 | 7.0 | 9.0 | 0.00 | 0.00 | 0.00 | 59 | 1018.3 |
| 20260510150315 | 69 | 257 | 5.0 | 6.0 | 0.00 | 0.00 | 0.00 | 66 | 1018.4 |
| 20260510145811 | 68 | 165 | 2.0 | 7.0 | 0.00 | 0.00 | 0.00 | 62 | 1018.4 |
| 20260510145308 | 68 | 224 | 3.0 | 8.0 | 0.00 | 0.00 | 0.00 | 66 | 1018.5 |
| 20260510144804 | 68 | 281 | 4.0 | 8.0 | 0.00 | 0.00 | 0.00 | 63 | 1018.5 |
| 20260510144301 | 67 | 325 | 4.0 | 10.0 | 0.00 | 0.00 | 0.00 | 60 | 1018.3 |
| 20260510143801 | 67 | 290 | 3.0 | 7.0 | 0.00 | 0.00 | 0.00 | 64 | 1018.5 |
| 20260510143257 | 67 | 162 | 1.0 | 6.0 | 0.00 | 0.00 | 0.00 | 61 | 1018.3 |
| 20260510142754 | 66 | 305 | 6.0 | 7.0 | 0.00 | 0.00 | 0.00 | 64 | 1018.1 |
| 20260510142251 | 65 | 290 | 3.0 | 4.0 | 0.00 | 0.00 | 0.00 | 71 | 1018.2 |
| 20260510141748 | 65 | 242 | 3.0 | 4.0 | 0.00 | 0.00 | 0.00 | 67 | 1018.1 |
| 20260510141246 | 65 | 299 | 2.0 | 7.0 | 0.00 | 0.00 | 0.00 | 67 | 1018.2 |
| 20260510140742 | 64 | 295 | 6.0 | 7.0 | 0.00 | 0.00 | 0.00 | 70 | 1018.4 |
| 20260510140237 | 64 | 181 | 3.0 | 6.0 | 0.00 | 0.00 | 0.00 | 66 | 1018.1 |
| 20260510135731 | 64 | 306 | 4.0 | 4.0 | 0.00 | 0.00 | 0.00 | 71 | 1018.2 |
| 20260510135227 | 64 | 205 | 0.0 | 4.0 | 0.00 | 0.00 | 0.00 | 70 | 1018.2 |
| 20260510134725 | 63 | 227 | 2.0 | 6.0 | 0.00 | 0.00 | 0.00 | 73 | 1018.3 |
| 20260510134222 | 63 | 247 | 3.0 | 3.0 | 0.00 | 0.00 | 0.00 | 74 | 1018.4 |
| 20260510133718 | 63 | 185 | 4.0 | 7.0 | 0.00 | 0.00 | 0.00 | 72 | 1018.3 |
| 20260510133214 | 62 | 247 | 0.0 | 1.0 | 0.00 | 0.00 | 0.00 | 75 | 1018.2 |
| 20260510132705 | 61 | 209 | 4.0 | 6.0 | 0.00 | 0.00 | 0.00 | 76 | 1018.4 |
| 20260510132202 | 58 | 201 | 1.0 | 3.0 | 0.00 | 0.00 | 0.00 | 85 | 1018.2 |
| 20260510131700 | 56 | 145 | 0.0 | 2.0 | 0.00 | 0.00 | 0.00 | 89 | 1018.4 |
| 20260510131157 | 55 | 224 | 1.0 | 2.0 | 0.00 | 0.00 | 0.00 | 95 | 1018.4 |
| 20260510130653 | 54 | 189 | 2.0 | 2.0 | 0.00 | 0.00 | 0.00 | 98 | 1018.3 |
| 20260510130150 | 53 | 190 | 0.0 | 0.0 | 0.00 | 0.00 | 0.00 | 99 | 1018.3 |
| 20260510125646 | 53 | 190 | 0.0 | 0.0 | 0.00 | 0.00 | 0.00 | 99 | 1018.4 |
| 20260510125142 | 53 | 190 | 0.0 | 0.0 | 0.00 | 0.00 | 0.00 | 99 | 1018.4 |
| 20260510124640 | 52 | 190 | 0.0 | 0.0 | 0.00 | 0.00 | 0.00 | 99 | 1018.4 |
| 20260510124136 | 51 | 190 | 0.0 | 0.0 | 0.00 | 0.00 | 0.00 | 99 | 1018.5 |
| 20260510123632 | 49 | 190 | 0.0 | 0.0 | 0.00 | 0.00 | 0.00 | 99 | 1018.5 |
| 20260510123128 | 48 | 190 | 0.0 | 0.0 | 0.00 | 0.00 | 0.00 | 99 | 1018.6 |
| 20260510122624 | 47 | 190 | 0.0 | 0.0 | 0.00 | 0.00 | 0.00 | 99 | 1018.5 |
| 20260510122120 | 47 | 190 | 0.0 | 0.0 | 0.00 | 0.00 | 0.00 | 99 | 1018.5 |
| 20260510121617 | 46 | 190 | 0.0 | 0.0 | 0.00 | 0.00 | 0.00 | 99 | 1018.3 |
| 20260510121115 | 44 | 190 | 0.0 | 0.0 | 0.00 | 0.00 | 0.00 | 99 | 1018.4 |
| 20260510120613 | 44 | 190 | 0.0 | 0.0 | 0.00 | 0.00 | 0.00 | 99 | 1018.1 |
| 20260510120107 | 43 | 190 | 0.0 | 0.0 | 0.00 | 0.00 | 0.00 | 99 | 1018.2 |
| 20260510115604 | 43 | 190 | 0.0 | 0.0 | 0.00 | 0.00 | 0.00 | 99 | 1018.1 |
| 20260510115102 | 43 | 190 | 0.0 | 0.0 | 0.00 | 0.00 | 0.00 | 99 | 1018.1 |
| 20260510114557 | 43 | 190 | 0.0 | 0.0 | 0.00 | 0.00 | 0.00 | 99 | 1017.7 |
| 20260510114054 | 42 | 190 | 0.0 | 0.0 | 0.00 | 0.00 | 0.00 | 99 | 1017.9 |
| 20260510113549 | 42 | 190 | 0.0 | 0.0 | 0.00 | 0.00 | 0.00 | 99 | 1017.6 |
| 20260510113047 | 41 | 190 | 0.0 | 0.0 | 0.00 | 0.00 | 0.00 | 99 | 1017.6 |
| 20260510112543 | 41 | 190 | 0.0 | 0.0 | 0.00 | 0.00 | 0.00 | 99 | 1017.6 |
| 20260510112039 | 41 | 190 | 0.0 | 0.0 | 0.00 | 0.00 | 0.00 | 99 | 1017.7 |
| 20260510111536 | 41 | 190 | 0.0 | 0.0 | 0.00 | 0.00 | 0.00 | 99 | 1017.7 |
| 20260510111032 | 41 | 190 | 0.0 | 0.0 | 0.00 | 0.00 | 0.00 | 99 | 1017.7 |
| 20260510110528 | 41 | 190 | 0.0 | 0.0 | 0.00 | 0.00 | 0.00 | 99 | 1017.5 |
| 20260510110025 | 40 | 190 | 0.0 | 0.0 | 0.00 | 0.00 | 0.00 | 99 | 1017.5 |
| 20260510105520 | 40 | 190 | 0.0 | 0.0 | 0.00 | 0.00 | 0.00 | 99 | 1017.3 |
| 20260510105015 | 40 | 190 | 0.0 | 0.0 | 0.00 | 0.00 | 0.00 | 99 | 1017.3 |
| 20260510104512 | 40 | 190 | 0.0 | 0.0 | 0.00 | 0.00 | 0.00 | 99 | 1017.3 |
| 20260510104008 | 40 | 190 | 0.0 | 0.0 | 0.00 | 0.00 | 0.00 | 99 | 1017.2 |
| 20260510103506 | 40 | 190 | 0.0 | 0.0 | 0.00 | 0.00 | 0.00 | 99 | 1017.2 |
| 20260510103001 | 40 | 190 | 0.0 | 0.0 | 0.00 | 0.00 | 0.00 | 99 | 1017.3 |
| 20260510102457 | 40 | 190 | 0.0 | 0.0 | 0.00 | 0.00 | 0.00 | 99 | 1017.0 |
| 20260510101954 | 40 | 190 | 0.0 | 0.0 | 0.00 | 0.00 | 0.00 | 99 | 1016.9 |
| 20260510101452 | 40 | 190 | 0.0 | 0.0 | 0.00 | 0.00 | 0.00 | 99 | 1016.7 |
| 20260510100950 | 41 | 190 | 0.0 | 0.0 | 0.00 | 0.00 | 0.00 | 99 | 1016.6 |
| 20260510100441 | 41 | 190 | 0.0 | 0.0 | 0.00 | 0.00 | 0.00 | 99 | 1016.7 |
| 20260510095937 | 40 | 190 | 0.0 | 0.0 | 0.00 | 0.00 | 0.00 | 99 | 1016.7 |
| 20260510095432 | 40 | 190 | 0.0 | 0.0 | 0.00 | 0.00 | 0.00 | 99 | 1016.6 |
| 20260510094932 | 40 | 190 | 0.0 | 0.0 | 0.00 | 0.00 | 0.00 | 99 | 1016.5 |
| 20260510094427 | 40 | 190 | 0.0 | 0.0 | 0.00 | 0.00 | 0.00 | 99 | 1016.5 |
| 20260510093923 | 40 | 190 | 0.0 | 0.0 | 0.00 | 0.00 | 0.00 | 99 | 1016.5 |
| 20260510093418 | 40 | 190 | 0.0 | 0.0 | 0.00 | 0.00 | 0.00 | 99 | 1016.6 |
| 20260510092915 | 40 | 190 | 0.0 | 0.0 | 0.00 | 0.00 | 0.00 | 99 | 1016.4 |
| 20260510092413 | 40 | 190 | 0.0 | 0.0 | 0.00 | 0.00 | 0.00 | 99 | 1016.4 |
| 20260510091907 | 41 | 190 | 0.0 | 0.0 | 0.00 | 0.00 | 0.00 | 99 | 1016.2 |
| 20260510091404 | 41 | 190 | 0.0 | 0.0 | 0.00 | 0.00 | 0.00 | 99 | 1016.2 |
| 20260510090901 | 41 | 190 | 0.0 | 0.0 | 0.00 | 0.00 | 0.00 | 99 | 1016.2 |
| 20260510090357 | 40 | 190 | 0.0 | 0.0 | 0.00 | 0.00 | 0.00 | 99 | 1016.2 |
| 20260510085853 | 40 | 190 | 0.0 | 0.0 | 0.00 | 0.00 | 0.00 | 99 | 1016.2 |
| 20260510085348 | 40 | 190 | 0.0 | 0.0 | 0.00 | 0.00 | 0.00 | 99 | 1015.9 |
| 20260510084838 | 40 | 190 | 0.0 | 0.0 | 0.00 | 0.00 | 0.00 | 99 | 1016.2 |
| 20260510084336 | 41 | 190 | 0.0 | 0.0 | 0.00 | 0.00 | 0.00 | 99 | 1016.1 |
| 20260510083832 | 41 | 190 | 0.0 | 0.0 | 0.00 | 0.00 | 0.00 | 99 | 1015.9 |
| 20260510083329 | 41 | 190 | 0.0 | 0.0 | 0.00 | 0.00 | 0.00 | 99 | 1015.9 |
| 20260510082824 | 41 | 190 | 0.0 | 0.0 | 0.00 | 0.00 | 0.00 | 99 | 1015.8 |
| 20260510082321 | 42 | 190 | 0.0 | 0.0 | 0.00 | 0.00 | 0.00 | 99 | 1015.7 |
| 20260510081820 | 41 | 190 | 0.0 | 0.0 | 0.00 | 0.00 | 0.00 | 99 | 1015.8 |
| 20260510081316 | 41 | 190 | 0.0 | 0.0 | 0.00 | 0.00 | 0.00 | 99 | 1015.7 |
| 20260510080812 | 41 | 190 | 0.0 | 0.0 | 0.00 | 0.00 | 0.00 | 99 | 1015.7 |
| 20260510080307 | 42 | 190 | 0.0 | 0.0 | 0.00 | 0.00 | 0.00 | 99 | 1015.7 |
| 20260510075804 | 42 | 206 | 0.0 | 0.0 | 0.00 | 0.00 | 0.00 | 99 | 1015.7 |
| 20260510075305 | 41 | 209 | 0.0 | 0.0 | 0.00 | 0.00 | 0.00 | 99 | 1015.6 |
| 20260510074759 | 41 | 213 | 0.0 | 0.0 | 0.00 | 0.00 | 0.00 | 99 | 1015.6 |
| 20260510074255 | 41 | 213 | 0.0 | 0.0 | 0.00 | 0.00 | 0.00 | 99 | 1015.7 |
| 20260510073751 | 41 | 213 | 0.0 | 0.0 | 0.00 | 0.00 | 0.00 | 99 | 1015.7 |
| 20260510073247 | 42 | 213 | 0.0 | 0.0 | 0.00 | 0.00 | 0.00 | 99 | 1015.7 |
| 20260510072743 | 41 | 213 | 0.0 | 0.0 | 0.00 | 0.00 | 0.00 | 99 | 1015.7 |
| 20260510072240 | 42 | 213 | 0.0 | 0.0 | 0.00 | 0.00 | 0.00 | 99 | 1015.6 |
| 20260510071737 | 42 | 213 | 0.0 | 0.0 | 0.00 | 0.00 | 0.00 | 99 | 1015.6 |
| 20260510071233 | 42 | 213 | 0.0 | 0.0 | 0.00 | 0.00 | 0.00 | 99 | 1015.6 |
| 20260510070732 | 42 | 190 | 0.0 | 0.0 | 0.00 | 0.00 | 0.00 | 99 | 1015.7 |
| 20260510070229 | 42 | 190 | 0.0 | 0.0 | 0.00 | 0.00 | 0.00 | 99 | 1015.4 |
| 20260510065723 | 42 | 190 | 0.0 | 0.0 | 0.00 | 0.00 | 0.00 | 99 | 1015.7 |
| 20260510065220 | 42 | 190 | 0.0 | 0.0 | 0.00 | 0.00 | 0.00 | 99 | 1015.7 |
| 20260510064716 | 42 | 190 | 0.0 | 0.0 | 0.00 | 0.00 | 0.00 | 99 | 1015.4 |
| 20260510064214 | 42 | 190 | 0.0 | 0.0 | 0.00 | 0.00 | 0.00 | 99 | 1015.4 |
| 20260510063711 | 42 | 190 | 0.0 | 0.0 | 0.00 | 0.00 | 0.00 | 99 | 1015.5 |
| 20260510063207 | 43 | 190 | 0.0 | 0.0 | 0.00 | 0.00 | 0.00 | 99 | 1015.6 |
| 20260510062704 | 42 | 190 | 0.0 | 0.0 | 0.00 | 0.00 | 0.00 | 99 | 1015.6 |
| 20260510062159 | 43 | 190 | 0.0 | 0.0 | 0.00 | 0.00 | 0.00 | 99 | 1015.6 |
| 20260510061654 | 43 | 190 | 0.0 | 0.0 | 0.00 | 0.00 | 0.00 | 99 | 1015.7 |
| 20260510061152 | 43 | 190 | 0.0 | 0.0 | 0.00 | 0.00 | 0.00 | 99 | 1015.6 |
| 20260510060648 | 43 | 190 | 0.0 | 0.0 | 0.00 | 0.00 | 0.00 | 99 | 1015.6 |
| 20260510060145 | 44 | 190 | 0.0 | 0.0 | 0.00 | 0.00 | 0.00 | 99 | 1015.5 |
| 20260510055641 | 44 | 190 | 0.0 | 0.0 | 0.00 | 0.00 | 0.00 | 99 | 1015.5 |
| 20260510055140 | 44 | 190 | 0.0 | 0.0 | 0.00 | 0.00 | 0.00 | 99 | 1015.7 |
| 20260510054635 | 44 | 190 | 0.0 | 0.0 | 0.00 | 0.00 | 0.00 | 99 | 1015.6 |
| 20260510054131 | 44 | 190 | 0.0 | 0.0 | 0.00 | 0.00 | 0.00 | 99 | 1015.6 |
| 20260510053630 | 44 | 190 | 0.0 | 0.0 | 0.00 | 0.00 | 0.00 | 99 | 1015.8 |
| 20260510053127 | 44 | 191 | 0.0 | 0.0 | 0.00 | 0.00 | 0.00 | 99 | 1015.7 |
| 20260510052623 | 44 | 190 | 0.0 | 1.0 | 0.00 | 0.00 | 0.00 | 99 | 1015.6 |
| 20260510052119 | 44 | 190 | 0.0 | 0.0 | 0.00 | 0.00 | 0.00 | 99 | 1015.7 |
| 20260510051614 | 44 | 190 | 0.0 | 0.0 | 0.00 | 0.00 | 0.00 | 99 | 1015.5 |
| 20260510051112 | 44 | 190 | 0.0 | 0.0 | 0.00 | 0.00 | 0.00 | 99 | 1015.6 |
| 20260510050609 | 44 | 190 | 0.0 | 0.0 | 0.00 | 0.00 | 0.00 | 99 | 1015.6 |
| 20260510050107 | 44 | 190 | 0.0 | 0.0 | 0.00 | 0.00 | 0.00 | 99 | 1015.7 |
| 20260510045604 | 45 | 190 | 0.0 | 0.0 | 0.00 | 0.00 | 0.00 | 99 | 1015.6 |
| 20260510045100 | 45 | 190 | 0.0 | 0.0 | 0.00 | 0.00 | 0.00 | 99 | 1015.7 |
| 20260510044556 | 45 | 190 | 0.0 | 0.0 | 0.00 | 0.00 | 0.00 | 99 | 1015.5 |
| 20260510044054 | 45 | 190 | 0.0 | 0.0 | 0.00 | 0.00 | 0.00 | 98 | 1015.5 |
| 20260510043549 | 45 | 190 | 0.0 | 0.0 | 0.00 | 0.00 | 0.00 | 98 | 1015.6 |
| 20260510043045 | 45 | 190 | 0.0 | 0.0 | 0.00 | 0.00 | 0.00 | 98 | 1015.6 |
| 20260510042544 | 46 | 190 | 0.0 | 0.0 | 0.00 | 0.00 | 0.00 | 98 | 1015.7 |
| 20260510042039 | 46 | 190 | 0.0 | 0.0 | 0.00 | 0.00 | 0.00 | 98 | 1015.6 |
| 20260510041537 | 45 | 190 | 0.0 | 0.0 | 0.00 | 0.00 | 0.00 | 98 | 1015.5 |
| 20260510041034 | 45 | 190 | 0.0 | 0.0 | 0.00 | 0.00 | 0.00 | 98 | 1015.5 |
| 20260510040525 | 46 | 190 | 0.0 | 0.0 | 0.00 | 0.00 | 0.00 | 98 | 1015.5 |
| 20260510040021 | 46 | 190 | 0.0 | 0.0 | 0.00 | 0.00 | 0.00 | 97 | 1015.4 |
| 20260510035518 | 46 | 190 | 0.0 | 0.0 | 0.00 | 0.00 | 0.00 | 97 | 1015.4 |
| 20260510035017 | 47 | 190 | 0.0 | 0.0 | 0.00 | 0.00 | 0.00 | 97 | 1015.5 |
| 20260510034516 | 47 | 190 | 0.0 | 0.0 | 0.00 | 0.00 | 0.00 | 97 | 1015.8 |
| 20260510034012 | 47 | 190 | 0.0 | 0.0 | 0.00 | 0.00 | 0.00 | 97 | 1015.4 |
| 20260510033508 | 47 | 190 | 0.0 | 0.0 | 0.00 | 0.00 | 0.00 | 97 | 1015.5 |
| 20260510033007 | 47 | 190 | 0.0 | 0.0 | 0.00 | 0.00 | 0.00 | 97 | 1015.4 |
| 20260510032502 | 47 | 235 | 0.0 | 0.0 | 0.00 | 0.00 | 0.00 | 97 | 1015.2 |
| 20260510031956 | 48 | 234 | 0.0 | 0.0 | 0.00 | 0.00 | 0.00 | 97 | 1015.3 |
| 20260510031452 | 48 | 235 | 0.0 | 0.0 | 0.00 | 0.00 | 0.00 | 97 | 1015.4 |
| 20260510030948 | 47 | 316 | 0.0 | 0.0 | 0.00 | 0.00 | 0.00 | 96 | 1015.3 |
| 20260510030443 | 48 | 310 | 2.0 | 2.0 | 0.00 | 0.00 | 0.00 | 96 | 1015.3 |
| 20260510025941 | 48 | 160 | 0.0 | 0.0 | 0.00 | 0.00 | 0.00 | 96 | 1015.3 |
| 20260510025438 | 48 | 160 | 0.0 | 0.0 | 0.00 | 0.00 | 0.00 | 96 | 1015.4 |
| 20260510024936 | 49 | 160 | 0.0 | 0.0 | 0.00 | 0.00 | 0.00 | 95 | 1015.5 |
| 20260510024432 | 49 | 160 | 0.0 | 0.0 | 0.00 | 0.00 | 0.00 | 95 | 1015.5 |
| 20260510023928 | 48 | 161 | 0.0 | 0.0 | 0.00 | 0.00 | 0.00 | 95 | 1015.6 |
| 20260510023425 | 49 | 160 | 0.0 | 0.0 | 0.00 | 0.00 | 0.00 | 94 | 1015.3 |
| 20260510022922 | 49 | 160 | 0.0 | 0.0 | 0.00 | 0.00 | 0.00 | 94 | 1015.2 |
| 20260510022421 | 49 | 160 | 0.0 | 0.0 | 0.00 | 0.00 | 0.00 | 94 | 1015.2 |
| 20260510021920 | 50 | 160 | 0.0 | 0.0 | 0.00 | 0.00 | 0.00 | 94 | 1015.1 |
| 20260510021418 | 49 | 160 | 0.0 | 0.0 | 0.00 | 0.00 | 0.00 | 93 | 1015.2 |
| 20260510020914 | 50 | 160 | 0.0 | 0.0 | 0.00 | 0.00 | 0.00 | 92 | 1014.9 |
| 20260510020409 | 51 | 160 | 0.0 | 0.0 | 0.00 | 0.00 | 0.00 | 92 | 1014.6 |
| 20260510015905 | 51 | 160 | 0.0 | 0.0 | 0.00 | 0.00 | 0.00 | 92 | 1014.4 |
| 20260510015401 | 51 | 160 | 0.0 | 0.0 | 0.00 | 0.00 | 0.00 | 91 | 1014.4 |
| 20260510014857 | 51 | 160 | 0.0 | 0.0 | 0.00 | 0.00 | 0.00 | 90 | 1014.5 |
| 20260510014354 | 52 | 160 | 0.0 | 0.0 | 0.00 | 0.00 | 0.00 | 90 | 1014.5 |
| 20260510013850 | 52 | 160 | 0.0 | 0.0 | 0.00 | 0.00 | 0.00 | 89 | 1014.4 |
| 20260510013346 | 53 | 160 | 0.0 | 0.0 | 0.00 | 0.00 | 0.00 | 88 | 1014.0 |
| 20260510012841 | 53 | 160 | 0.0 | 0.0 | 0.00 | 0.00 | 0.00 | 87 | 1014.0 |
| 20260510012335 | 53 | 160 | 0.0 | 0.0 | 0.00 | 0.00 | 0.00 | 87 | 1014.3 |
| 20260510011830 | 53 | 160 | 0.0 | 0.0 | 0.00 | 0.00 | 0.00 | 87 | 1014.0 |
| 20260510011326 | 54 | 160 | 0.0 | 0.0 | 0.00 | 0.00 | 0.00 | 86 | 1013.9 |
| 20260510010823 | 54 | 160 | 0.0 | 0.0 | 0.00 | 0.00 | 0.00 | 82 | 1013.8 |
| 20260510010320 | 55 | 160 | 0.0 | 0.0 | 0.00 | 0.00 | 0.00 | 80 | 1013.9 |
| 20260510005816 | 56 | 160 | 0.0 | 0.0 | 0.00 | 0.00 | 0.00 | 79 | 1013.7 |
| 20260510005312 | 57 | 160 | 0.0 | 0.0 | 0.00 | 0.00 | 0.00 | 78 | 1013.9 |
| 20260510004811 | 57 | 160 | 0.0 | 0.0 | 0.00 | 0.00 | 0.00 | 76 | 1013.6 |
| 20260510004308 | 58 | 160 | 0.0 | 0.0 | 0.00 | 0.00 | 0.00 | 75 | 1013.5 |
| 20260510003806 | 59 | 160 | 0.0 | 0.0 | 0.00 | 0.00 | 0.00 | 71 | 1013.8 |
| 20260510003302 | 60 | 160 | 0.0 | 0.0 | 0.00 | 0.00 | 0.00 | 70 | 1013.7 |
| 20260510002801 | 61 | 160 | 1.0 | 1.0 | 0.00 | 0.00 | 0.00 | 67 | 1013.5 |
| 20260510002258 | 62 | 265 | 0.0 | 1.0 | 0.00 | 0.00 | 0.00 | 63 | 1013.4 |
| 20260510001755 | 62 | 190 | 2.0 | 2.0 | 0.00 | 0.00 | 0.00 | 63 | 1013.3 |
| 20260510001253 | 64 | 184 | 0.0 | 0.0 | 0.00 | 0.00 | 0.00 | 62 | 1013.2 |
| 20260510000748 | 65 | 184 | 0.0 | 1.0 | 0.00 | 0.00 | 0.00 | 60 | 1013.4 |
| 20260510000248 | 65 | 250 | 1.0 | 2.0 | 0.00 | 0.00 | 0.00 | 58 | 1013.2 |
| 20260509235743 | 66 | 270 | 0.0 | 1.0 | 0.00 | 0.00 | 0.00 | 57 | 1013.1 |
| 20260509235240 | 66 | 258 | 0.0 | 1.0 | 0.00 | 0.00 | 0.00 | 55 | 1013.2 |
| 20260509234735 | 65 | 233 | 1.0 | 2.0 | 0.00 | 0.00 | 0.00 | 59 | 1013.2 |
| 20260509234232 | 65 | 281 | 1.0 | 2.0 | 0.00 | 0.00 | 0.00 | 61 | 1012.9 |
| 20260509233731 | 64 | 183 | 0.0 | 1.0 | 0.00 | 0.00 | 0.00 | 59 | 1013.0 |
| 20260509233229 | 64 | 226 | 2.0 | 3.0 | 0.00 | 0.00 | 0.00 | 59 | 1013.1 |
| 20260509232724 | 64 | 300 | 2.0 | 7.0 | 0.00 | 0.00 | 0.00 | 58 | 1013.1 |
| 20260509232221 | 65 | 248 | 4.0 | 6.0 | 0.00 | 0.00 | 0.00 | 57 | 1013.0 |
| 20260509231717 | 66 | 298 | 2.0 | 4.0 | 0.00 | 0.00 | 0.00 | 55 | 1012.9 |
| 20260509231215 | 66 | 257 | 5.0 | 7.0 | 0.00 | 0.00 | 0.00 | 54 | 1012.9 |
| 20260509230713 | 66 | 293 | 2.0 | 3.0 | 0.00 | 0.00 | 0.00 | 58 | 1012.8 |
| 20260509230209 | 66 | 218 | 3.0 | 7.0 | 0.00 | 0.00 | 0.00 | 57 | 1012.8 |
| 20260509225705 | 66 | 297 | 3.0 | 7.0 | 0.00 | 0.00 | 0.00 | 56 | 1012.8 |
| 20260509225201 | 65 | 350 | 2.0 | 7.0 | 0.00 | 0.00 | 0.00 | 57 | 1012.8 |
| 20260509224656 | 66 | 274 | 1.0 | 4.0 | 0.00 | 0.00 | 0.00 | 53 | 1012.8 |
| 20260509224153 | 67 | 253 | 4.0 | 6.0 | 0.00 | 0.00 | 0.00 | 56 | 1013.0 |
| 20260509223651 | 66 | 268 | 1.0 | 4.0 | 0.00 | 0.00 | 0.00 | 54 | 1012.8 |
| 20260509223147 | 66 | 335 | 8.0 | 9.0 | 0.00 | 0.00 | 0.00 | 53 | 1013.1 |
| 20260509222644 | 66 | 196 | 2.0 | 6.0 | 0.00 | 0.00 | 0.00 | 55 | 1013.1 |
| 20260509222139 | 66 | 260 | 3.0 | 7.0 | 0.00 | 0.00 | 0.00 | 52 | 1013.1 |
| 20260509221636 | 66 | 326 | 7.0 | 9.0 | 0.00 | 0.00 | 0.00 | 53 | 1013.2 |
| 20260509221131 | 66 | 294 | 4.0 | 4.0 | 0.00 | 0.00 | 0.00 | 55 | 1013.1 |
| 20260509220627 | 66 | 326 | 2.0 | 6.0 | 0.00 | 0.00 | 0.00 | 54 | 1013.1 |
| 20260509220124 | 66 | 285 | 3.0 | 4.0 | 0.00 | 0.00 | 0.00 | 56 | 1013.3 |
| 20260509215620 | 65 | 326 | 4.0 | 7.0 | 0.00 | 0.00 | 0.00 | 54 | 1013.2 |
| 20260509215117 | 65 | 259 | 2.0 | 3.0 | 0.00 | 0.00 | 0.00 | 54 | 1013.3 |
| 20260509214614 | 65 | 317 | 5.0 | 9.0 | 0.00 | 0.00 | 0.00 | 52 | 1013.1 |
| 20260509214111 | 65 | 276 | 4.0 | 7.0 | 0.00 | 0.00 | 0.00 | 52 | 1013.1 |
| 20260509213607 | 65 | 222 | 3.0 | 10.0 | 0.00 | 0.00 | 0.00 | 53 | 1013.0 |
| 20260509213103 | 65 | 262 | 4.0 | 10.0 | 0.00 | 0.00 | 0.00 | 53 | 1013.1 |
| 20260509212601 | 66 | 225 | 2.0 | 7.0 | 0.00 | 0.00 | 0.00 | 50 | 1013.0 |
| 20260509212058 | 66 | 289 | 4.0 | 6.0 | 0.00 | 0.00 | 0.00 | 51 | 1012.8 |
| 20260509211553 | 66 | 258 | 1.0 | 3.0 | 0.00 | 0.00 | 0.00 | 55 | 1012.9 |
| 20260509211050 | 66 | 281 | 2.0 | 7.0 | 0.00 | 0.00 | 0.00 | 51 | 1013.0 |
| 20260509210547 | 65 | 264 | 1.0 | 6.0 | 0.00 | 0.00 | 0.00 | 52 | 1013.0 |
| 20260509210043 | 66 | 248 | 4.0 | 9.0 | 0.00 | 0.00 | 0.00 | 50 | 1012.7 |
| 20260509205537 | 65 | 235 | 3.0 | 4.0 | 0.00 | 0.00 | 0.00 | 53 | 1012.8 |
| 20260509205033 | 65 | 249 | 4.0 | 7.0 | 0.00 | 0.00 | 0.00 | 51 | 1012.8 |
| 20260509204530 | 65 | 273 | 4.0 | 6.0 | 0.00 | 0.00 | 0.00 | 52 | 1012.8 |
| 20260509204026 | 66 | 309 | 7.0 | 10.0 | 0.00 | 0.00 | 0.00 | 53 | 1012.7 |
| 20260509203522 | 65 | 273 | 4.0 | 6.0 | 0.00 | 0.00 | 0.00 | 52 | 1012.7 |
| 20260509203021 | 65 | 300 | 5.0 | 8.0 | 0.00 | 0.00 | 0.00 | 51 | 1012.4 |
| 20260509202515 | 66 | 242 | 2.0 | 7.0 | 0.00 | 0.00 | 0.00 | 50 | 1012.4 |
| 20260509202011 | 65 | 328 | 5.0 | 7.0 | 0.00 | 0.00 | 0.00 | 53 | 1012.6 |
| 20260509201506 | 65 | 302 | 8.0 | 10.0 | 0.00 | 0.00 | 0.00 | 50 | 1012.7 |
| 20260509201003 | 66 | 285 | 2.0 | 4.0 | 0.00 | 0.00 | 0.00 | 52 | 1012.3 |
| 20260509200458 | 66 | 300 | 5.0 | 8.0 | 0.00 | 0.00 | 0.00 | 49 | 1012.3 |
| 20260509195954 | 65 | 290 | 1.0 | 3.0 | 0.00 | 0.00 | 0.00 | 48 | 1012.2 |
| 20260509195450 | 65 | 288 | 4.0 | 6.0 | 0.00 | 0.00 | 0.00 | 47 | 1012.2 |
| 20260509194949 | 65 | 346 | 3.0 | 7.0 | 0.00 | 0.00 | 0.00 | 52 | 1012.4 |
| 20260509194446 | 65 | 311 | 7.0 | 8.0 | 0.00 | 0.00 | 0.00 | 49 | 1012.6 |
| 20260509193943 | 65 | 294 | 6.0 | 9.0 | 0.00 | 0.00 | 0.00 | 51 | 1012.3 |
| 20260509193442 | 65 | 306 | 5.0 | 7.0 | 0.00 | 0.00 | 0.00 | 51 | 1012.4 |
| 20260509192938 | 65 | 274 | 7.0 | 9.0 | 0.00 | 0.00 | 0.00 | 46 | 1012.3 |
| 20260509192435 | 66 | 281 | 5.0 | 8.0 | 0.00 | 0.00 | 0.00 | 49 | 1012.3 |
| 20260509191930 | 66 | 266 | 6.0 | 10.0 | 0.00 | 0.00 | 0.00 | 49 | 1012.4 |
| 20260509191425 | 65 | 231 | 6.0 | 7.0 | 0.00 | 0.00 | 0.00 | 47 | 1012.3 |
| 20260509190922 | 65 | 316 | 10.0 | 13.0 | 0.00 | 0.00 | 0.00 | 50 | 1012.6 |
| 20260509190419 | 66 | 316 | 9.0 | 10.0 | 0.00 | 0.00 | 0.00 | 49 | 1012.4 |
| 20260509185917 | 65 | 333 | 9.0 | 10.0 | 0.00 | 0.00 | 0.00 | 46 | 1012.4 |
| 20260509185414 | 66 | 327 | 7.0 | 9.0 | 0.00 | 0.00 | 0.00 | 49 | 1012.4 |
| 20260509184911 | 66 | 304 | 3.0 | 3.0 | 0.00 | 0.00 | 0.00 | 51 | 1012.1 |
| 20260509184408 | 65 | 329 | 7.0 | 10.0 | 0.00 | 0.00 | 0.00 | 52 | 1012.4 |
| 20260509183905 | 66 | 295 | 2.0 | 8.0 | 0.00 | 0.00 | 0.00 | 55 | 1012.3 |
| 20260509183400 | 66 | 301 | 2.0 | 7.0 | 0.00 | 0.00 | 0.00 | 47 | 1012.2 |
| 20260509182856 | 66 | 315 | 6.0 | 9.0 | 0.00 | 0.00 | 0.00 | 51 | 1012.4 |
| 20260509182353 | 65 | 318 | 6.0 | 8.0 | 0.00 | 0.00 | 0.00 | 53 | 1012.3 |
| 20260509181850 | 66 | 219 | 4.0 | 6.0 | 0.00 | 0.00 | 0.00 | 52 | 1012.6 |
| 20260509181347 | 66 | 308 | 4.0 | 6.0 | 0.00 | 0.00 | 0.00 | 52 | 1012.3 |
| 20260509180844 | 66 | 294 | 6.0 | 11.0 | 0.00 | 0.00 | 0.00 | 54 | 1012.2 |
| 20260509180340 | 67 | 290 | 8.0 | 10.0 | 0.00 | 0.00 | 0.00 | 48 | 1012.2 |
| 20260509175837 | 66 | 276 | 4.0 | 9.0 | 0.00 | 0.00 | 0.00 | 55 | 1012.4 |
| 20260509175333 | 66 | 205 | 5.0 | 8.0 | 0.00 | 0.00 | 0.00 | 55 | 1012.0 |
| 20260509174829 | 67 | 41 | 1.0 | 7.0 | 0.00 | 0.00 | 0.00 | 53 | 1012.3 |
| 20260509174325 | 66 | 259 | 4.0 | 7.0 | 0.00 | 0.00 | 0.00 | 55 | 1012.6 |
| 20260509173821 | 66 | 198 | 5.0 | 8.0 | 0.00 | 0.00 | 0.00 | 54 | 1012.4 |
| 20260509173317 | 64 | 275 | 5.0 | 7.0 | 0.00 | 0.00 | 0.00 | 55 | 1012.4 |
| 20260509172813 | 65 | 204 | 4.0 | 8.0 | 0.00 | 0.00 | 0.00 | 59 | 1012.6 |
| 20260509172310 | 64 | 307 | 3.0 | 7.0 | 0.00 | 0.00 | 0.00 | 57 | 1012.6 |
| 20260509171806 | 65 | 148 | 7.0 | 10.0 | 0.00 | 0.00 | 0.00 | 59 | 1012.8 |
| 20260509171303 | 64 | 251 | 4.0 | 9.0 | 0.00 | 0.00 | 0.00 | 57 | 1012.7 |
| 20260509170759 | 64 | 332 | 12.0 | 14.0 | 0.00 | 0.00 | 0.00 | 56 | 1012.8 |
| 20260509170255 | 64 | 294 | 5.0 | 8.0 | 0.00 | 0.00 | 0.00 | 63 | 1012.6 |
| 20260509165754 | 64 | 313 | 5.0 | 7.0 | 0.00 | 0.00 | 0.00 | 61 | 1012.8 |
| 20260509165249 | 64 | 249 | 1.0 | 8.0 | 0.00 | 0.00 | 0.00 | 63 | 1012.9 |
| 20260509164745 | 64 | 280 | 3.0 | 8.0 | 0.00 | 0.00 | 0.00 | 65 | 1013.1 |
| 20260509164241 | 64 | 278 | 5.0 | 7.0 | 0.00 | 0.00 | 0.00 | 65 | 1013.3 |
| 20260509163738 | 62 | 287 | 4.0 | 6.0 | 0.00 | 0.00 | 0.00 | 66 | 1013.1 |
| 20260509163234 | 62 | 294 | 5.0 | 9.0 | 0.00 | 0.00 | 0.00 | 66 | 1013.3 |
| 20260509162733 | 62 | 307 | 6.0 | 10.0 | 0.00 | 0.00 | 0.00 | 67 | 1013.3 |
| 20260509162227 | 62 | 267 | 4.0 | 6.0 | 0.00 | 0.00 | 0.00 | 68 | 1013.3 |
| 20260509161723 | 61 | 285 | 5.0 | 10.0 | 0.00 | 0.00 | 0.00 | 67 | 1013.3 |
| 20260509161220 | 61 | 292 | 4.0 | 11.0 | 0.00 | 0.00 | 0.00 | 69 | 1013.1 |
| 20260509160720 | 61 | 283 | 2.0 | 6.0 | 0.00 | 0.00 | 0.00 | 69 | 1013.3 |
| 20260509160217 | 61 | 303 | 6.0 | 11.0 | 0.00 | 0.00 | 0.00 | 69 | 1013.2 |
| 20260509155712 | 61 | 253 | 4.0 | 9.0 | 0.00 | 0.00 | 0.00 | 69 | 1013.1 |
| 20260509155209 | 61 | 258 | 6.0 | 8.0 | 0.00 | 0.00 | 0.00 | 68 | 1013.0 |
| 20260509154705 | 60 | 313 | 5.0 | 9.0 | 0.00 | 0.00 | 0.00 | 71 | 1013.0 |
| 20260509154202 | 60 | 290 | 4.0 | 7.0 | 0.00 | 0.00 | 0.00 | 69 | 1013.0 |
| 20260509153659 | 60 | 324 | 6.0 | 8.0 | 0.00 | 0.00 | 0.00 | 71 | 1012.8 |